When you browse on this site, cookies collect data to enhance your experience and personalize the content and advertising you see.
Visit our Privacy Policy to learn more. By continuing to use the site, you agree to this use of cookies and data.
  • In Schweiz
  • Länderverzeichnis
  • Für 7 Tage
  • Wassertemperatur
  • Satellitenkarten
  • Wetterkarte
  • Widgets
  • user-avatar
    Anmelden

    Stündliche Wetter Cumaná

    Heute, 22 Juli, Montag

    Zeit Temperatur Niederschläge Wind Luftdruck Luftfeuchtigkeit
    00:00 +25°C° 0 mm 3 m/S 752 mmHg 91%
    01:00 +25°C° 0 mm 3 m/S 752 mmHg 90%
    02:00 +25°C° 0 mm 3 m/S 752 mmHg 89%
    03:00 +25°C° 0 mm 2 m/S 751 mmHg 89%
    04:00 +25°C° 0 mm 2 m/S 751 mmHg 89%
    05:00 +25°C° 0 mm 2 m/S 751 mmHg 89%
    06:00 +27°C° 0 mm 2 m/S 752 mmHg 85%
    07:00 +28°C° 0 mm 1 m/S 752 mmHg 81%
    08:00 +29°C° 0 mm 1 m/S 752 mmHg 77%
    09:00 +31°C° 0 mm 1 m/S 753 mmHg 70%
    10:00 +34°C° 0 mm 2 m/S 753 mmHg 63%
    11:00 +35°C° 0 mm 2 m/S 753 mmHg 56%
    12:00 +35°C° 0.3 mm 2 m/S 752 mmHg 61%
    13:00 +34°C° 0.3 mm 2 m/S 752 mmHg 65%
    14:00 +34°C° 0.3 mm 3 m/S 751 mmHg 70%
    15:00 +33°C° 0.7 mm 3 m/S 751 mmHg 77%
    16:00 +30°C° 0.7 mm 3 m/S 750 mmHg 84%
    17:00 +29°C° 0.7 mm 3 m/S 750 mmHg 91%
    18:00 +28°C° 0 mm 4 m/S 750 mmHg 92%
    19:00 +28°C° 0 mm 4 m/S 751 mmHg 94%
    20:00 +27°C° 0 mm 5 m/S 751 mmHg 95%
    21:00 +26°C° 0 mm 5 m/S 752 mmHg 93%
    22:00 +26°C° 0 mm 5 m/S 752 mmHg 91%
    23:00 +25°C° 0 mm 5 m/S 753 mmHg 89%

    Morgen, 23 Juli, Dienstag

    Zeit Temperatur Niederschläge Wind Luftdruck Luftfeuchtigkeit
    00:00 +25°C° 0 mm 4 m/S 753 mmHg 88%
    01:00 +25°C° 0 mm 4 m/S 752 mmHg 86%
    02:00 +25°C° 0 mm 3 m/S 752 mmHg 85%
    03:00 +25°C° 0 mm 3 m/S 752 mmHg 85%
    04:00 +25°C° 0 mm 3 m/S 752 mmHg 84%
    05:00 +25°C° 0 mm 2 m/S 752 mmHg 84%
    06:00 +26°C° 0 mm 2 m/S 752 mmHg 79%
    07:00 +28°C° 0 mm 2 m/S 753 mmHg 75%
    08:00 +29°C° 0 mm 2 m/S 753 mmHg 71%
    09:00 +31°C° 0 mm 2 m/S 753 mmHg 67%
    10:00 +32°C° 0 mm 2 m/S 753 mmHg 64%
    11:00 +34°C° 0 mm 3 m/S 753 mmHg 61%
    12:00 +34°C° 0.3 mm 3 m/S 753 mmHg 65%
    13:00 +33°C° 0.3 mm 3 m/S 752 mmHg 69%
    14:00 +33°C° 0.3 mm 3 m/S 751 mmHg 73%
    15:00 +31°C° 0.1 mm 3 m/S 751 mmHg 75%
    16:00 +31°C° 0.1 mm 3 m/S 751 mmHg 77%
    17:00 +30°C° 0.1 mm 3 m/S 750 mmHg 79%
    18:00 +29°C° 0 mm 3 m/S 751 mmHg 85%
    19:00 +28°C° 0 mm 4 m/S 751 mmHg 90%
    20:00 +26°C° 0 mm 4 m/S 752 mmHg 95%
    21:00 +26°C° 0 mm 4 m/S 752 mmHg 92%
    22:00 +26°C° 0 mm 4 m/S 753 mmHg 88%
    23:00 +25°C° 0 mm 3 m/S 753 mmHg 84%

    übermorgen, 24 Juli, Mittwoch

    Zeit Temperatur Niederschläge Wind Luftdruck Luftfeuchtigkeit
    00:00 +25°C° 0 mm 3 m/S 753 mmHg 81%
    01:00 +25°C° 0 mm 3 m/S 752 mmHg 77%
    02:00 +25°C° 0 mm 3 m/S 752 mmHg 74%
    03:00 +25°C° 0 mm 3 m/S 752 mmHg 74%
    04:00 +25°C° 0 mm 3 m/S 752 mmHg 75%
    05:00 +25°C° 0 mm 3 m/S 752 mmHg 75%
    06:00 +26°C° 0 mm 3 m/S 752 mmHg 73%
    07:00 +28°C° 0 mm 3 m/S 752 mmHg 71%
    08:00 +29°C° 0 mm 3 m/S 753 mmHg 69%
    09:00 +30°C° 0 mm 3 m/S 753 mmHg 66%
    10:00 +33°C° 0 mm 4 m/S 753 mmHg 63%
    11:00 +34°C° 0 mm 4 m/S 753 mmHg 60%
    12:00 +33°C° 0.3 mm 4 m/S 752 mmHg 67%
    13:00 +33°C° 0.3 mm 5 m/S 752 mmHg 75%
    14:00 +32°C° 0.3 mm 5 m/S 751 mmHg 82%
    15:00 +30°C° 0.5 mm 5 m/S 751 mmHg 85%
    16:00 +30°C° 0.5 mm 5 m/S 751 mmHg 88%
    17:00 +29°C° 0.5 mm 5 m/S 751 mmHg 91%
    18:00 +28°C° 0.2 mm 5 m/S 751 mmHg 93%
    19:00 +27°C° 0.2 mm 5 m/S 751 mmHg 95%
    20:00 +26°C° 0.2 mm 5 m/S 751 mmHg 97%
    21:00 +26°C° 0 mm 4 m/S 752 mmHg 97%
    22:00 +25°C° 0 mm 4 m/S 752 mmHg 96%
    23:00 +25°C° 0 mm 3 m/S 753 mmHg 95%

    25 Juli, Donnerstag

    Zeit Temperatur Niederschläge Wind Luftdruck Luftfeuchtigkeit
    00:00 +25°C° 0 mm 3 m/S 752 mmHg 94%
    01:00 +24°C° 0 mm 3 m/S 752 mmHg 93%
    02:00 +24°C° 0 mm 3 m/S 751 mmHg 91%
    03:00 +24°C° 0 mm 3 m/S 751 mmHg 91%
    04:00 +24°C° 0 mm 3 m/S 751 mmHg 91%
    05:00 +24°C° 0 mm 3 m/S 751 mmHg 91%
    06:00 +25°C° 0 mm 2 m/S 752 mmHg 88%
    07:00 +27°C° 0 mm 2 m/S 752 mmHg 85%
    08:00 +28°C° 0 mm 1 m/S 753 mmHg 82%
    09:00 +30°C° 0 mm 2 m/S 753 mmHg 75%
    10:00 +31°C° 0 mm 2 m/S 753 mmHg 68%
    11:00 +34°C° 0 mm 2 m/S 753 mmHg 60%
    12:00 +34°C° 0.1 mm 2 m/S 752 mmHg 61%
    13:00 +34°C° 0.1 mm 2 m/S 752 mmHg 61%
    14:00 +34°C° 0.1 mm 2 m/S 751 mmHg 62%
    15:00 +33°C° 0.4 mm 3 m/S 751 mmHg 70%
    16:00 +32°C° 0.4 mm 4 m/S 751 mmHg 78%
    17:00 +30°C° 0.4 mm 4 m/S 750 mmHg 86%
    18:00 +28°C° 0.2 mm 5 m/S 751 mmHg 89%
    19:00 +27°C° 0.2 mm 5 m/S 751 mmHg 92%
    20:00 +26°C° 0.2 mm 5 m/S 751 mmHg 95%
    21:00 +26°C° 0 mm 5 m/S 752 mmHg 93%
    22:00 +25°C° 0 mm 5 m/S 752 mmHg 92%
    23:00 +25°C° 0 mm 5 m/S 753 mmHg 90%

    26 Juli, Freitag

    Zeit Temperatur Niederschläge Wind Luftdruck Luftfeuchtigkeit
    00:00 +25°C° 0 mm 4 m/S 752 mmHg 89%
    01:00 +25°C° 0 mm 4 m/S 752 mmHg 88%
    02:00 +25°C° 0 mm 3 m/S 751 mmHg 87%
    03:00 +25°C° 0 mm 3 m/S 752 mmHg 86%
    04:00 +25°C° 0 mm 3 m/S 752 mmHg 85%
    05:00 +25°C° 0 mm 2 m/S 752 mmHg 84%
    06:00 +26°C° 0 mm 2 m/S 752 mmHg 81%
    07:00 +28°C° 0 mm 2 m/S 753 mmHg 77%
    08:00 +29°C° 0 mm 2 m/S 753 mmHg 73%
    09:00 +31°C° 0 mm 2 m/S 753 mmHg 71%
    10:00 +33°C° 0 mm 3 m/S 753 mmHg 68%
    11:00 +34°C° 0 mm 3 m/S 753 mmHg 65%
    12:00 +33°C° 0.4 mm 3 m/S 753 mmHg 71%
    13:00 +32°C° 0.4 mm 4 m/S 752 mmHg 77%
    14:00 +32°C° 0.4 mm 4 m/S 751 mmHg 84%
    15:00 +32°C° 0.2 mm 5 m/S 751 mmHg 81%
    16:00 +32°C° 0.2 mm 6 m/S 751 mmHg 79%
    17:00 +32°C° 0.2 mm 6 m/S 751 mmHg 76%
    18:00 +30°C° 0 mm 6 m/S 751 mmHg 83%
    19:00 +28°C° 0 mm 6 m/S 752 mmHg 90%
    20:00 +27°C° 0 mm 5 m/S 752 mmHg 97%
    21:00 +26°C° 0 mm 5 m/S 753 mmHg 96%
    22:00 +26°C° 0 mm 4 m/S 753 mmHg 95%
    23:00 +26°C° 0 mm 4 m/S 753 mmHg 93%

    27 Juli, Samstag

    Zeit Temperatur Niederschläge Wind Luftdruck Luftfeuchtigkeit
    00:00 +26°C° 0 mm 3 m/S 753 mmHg 92%
    01:00 +25°C° 0 mm 3 m/S 752 mmHg 90%
    02:00 +25°C° 0 mm 3 m/S 752 mmHg 89%
    03:00 +25°C° 0 mm 3 m/S 752 mmHg 89%
    04:00 +25°C° 0 mm 2 m/S 752 mmHg 88%
    05:00 +25°C° 0 mm 2 m/S 752 mmHg 88%
    06:00 +26°C° 0 mm 2 m/S 752 mmHg 84%
    07:00 +28°C° 0 mm 2 m/S 753 mmHg 80%
    08:00 +29°C° 0 mm 2 m/S 753 mmHg 76%
    09:00 +30°C° 0 mm 2 m/S 753 mmHg 70%
    10:00 +33°C° 0 mm 3 m/S 753 mmHg 64%
    11:00 +34°C° 0 mm 4 m/S 754 mmHg 58%
    12:00 +33°C° 0.6 mm 4 m/S 753 mmHg 67%
    13:00 +31°C° 0.6 mm 3 m/S 752 mmHg 75%
    14:00 +30°C° 0.6 mm 3 m/S 752 mmHg 84%
    15:00 +30°C° 0.3 mm 4 m/S 752 mmHg 84%
    16:00 +30°C° 0.3 mm 4 m/S 751 mmHg 85%
    17:00 +29°C° 0.3 mm 5 m/S 751 mmHg 85%
    18:00 +28°C° 0 mm 5 m/S 751 mmHg 88%
    19:00 +27°C° 0 mm 4 m/S 752 mmHg 92%
    20:00 +26°C° 0 mm 4 m/S 752 mmHg 95%
    21:00 +26°C° 0 mm 4 m/S 753 mmHg 94%
    22:00 +26°C° 0 mm 4 m/S 753 mmHg 92%
    23:00 +25°C° 0 mm 4 m/S 753 mmHg 90%
    Mehr zeigen